sat.trackr.live / text

‹ back to catalog

YAOGAN-30 02B

NORAD 42946 · 2017-058B

PAYLOAD ACTIVE UNKNOWN

§ Identity

Operator
Country
PRC
Launch date
2017-09-29
Launch site
XICLF
Launch vehicle
Mass (kg)
RCS (m²)

External: N2YO · Heavens-Above · Gunter

§ Orbital elements

Epoch: 2026-05-25T05:07:34.990752Z

Period
95.83 min
Inclination
34.9959°
Eccentricity
0.0001592
Mean motion
15.02690485 rev/d
Perigee alt
557.5 km
Apogee alt
559.7 km
Semi-major
6,936.7 km
B*
1.3902e-4
RAAN
170.1839°
Arg perigee
128.3431°
Mean anomaly
231.7420°
Rev number
47,240

§ Raw data

YAOGAN-30 02B1 42946U 17058B   26145.21359943  .00001864  00000+0  13902-3 0  99962 42946  34.9959 170.1839 0001592 128.3431 231.7420 15.02690485472400

JSON: /api/v1/satellites/42946 · /tle

For live sub-satellite position, see the globe view (requires WebGL).

§ Visibility from observer

Set your observer location to see the next 7 days of passes ≥ 10°. The values pass through the URL so the page stays shareable.

No JS? Fill the form by hand. The geolocation button needs JavaScript.